| time (UTC) | temp F | wind direction | speed knots | gust knots | rain 1hr in | rain 24hr in | rain mn in | humidity % | barometer mb |
| 20260505184018 | 60 | 160 | 0.9 | 4.3 | 0.00 | 0.00 | 0.00 | 53 | 1012.7 |
| 20260505183518 | 60 | 0 | 0.0 | 5.2 | 0.00 | 0.00 | 0.00 | 50 | 1012.7 |
| 20260505183036 | 60 | 0 | 1.7 | 5.2 | 0.00 | 0.00 | 0.00 | 48 | 1012.7 |
| 20260505182517 | 60 | 0 | 1.7 | 5.2 | 0.00 | 0.00 | 0.00 | 49 | 1012.6 |
| 20260505182017 | 60 | 171 | 0.0 | 6.1 | 0.00 | 0.00 | 0.00 | 46 | 1012.6 |
| 20260505181540 | 60 | 215 | 0.0 | 6.1 | 0.00 | 0.00 | 0.00 | 48 | 1012.7 |
| 20260505181017 | 60 | 0 | 0.9 | 4.3 | 0.00 | 0.00 | 0.00 | 50 | 1012.5 |
| 20260505180518 | 60 | 223 | 0.0 | 3.5 | 0.00 | 0.00 | 0.00 | 48 | 1012.5 |
| 20260505180039 | 60 | 229 | 0.0 | 2.6 | 0.00 | 0.00 | 0.00 | 47 | 1012.6 |
| 20260505175517 | 60 | 263 | 0.0 | 2.6 | 0.00 | 0.00 | 0.00 | 47 | 1012.5 |
| 20260505175019 | 61 | 265 | 0.0 | 6.1 | 0.00 | 0.00 | 0.00 | 44 | 1012.7 |
| 20260505174541 | 61 | 26 | 0.0 | 6.1 | 0.00 | 0.00 | 0.00 | 44 | 1012.5 |
| 20260505174017 | 62 | 253 | 0.9 | 6.1 | 0.00 | 0.00 | 0.00 | 46 | 1012.4 |
| 20260505173517 | 62 | 0 | 0.0 | 4.3 | 0.00 | 0.00 | 0.00 | 45 | 1012.4 |
| 20260505173035 | 62 | 337 | 0.9 | 5.2 | 0.00 | 0.00 | 0.00 | 48 | 1012.4 |
| 20260505172517 | 61 | 0 | 0.0 | 5.2 | 0.00 | 0.00 | 0.00 | 45 | 1012.3 |
| 20260505172017 | 61 | 0 | 0.9 | 5.2 | 0.00 | 0.00 | 0.00 | 46 | 1012.4 |
| 20260505171543 | 60 | 0 | 0.0 | 3.5 | 0.00 | 0.00 | 0.00 | 48 | 1012.4 |
| 20260505171017 | 59 | 0 | 0.0 | 3.5 | 0.00 | 0.00 | 0.00 | 49 | 1012.6 |
| 20260505170518 | 59 | 336 | 0.9 | 3.5 | 0.00 | 0.00 | 0.00 | 49 | 1012.7 |
| 20260505170036 | 58 | 136 | 0.0 | 3.5 | 0.00 | 0.00 | 0.00 | 49 | 1012.7 |
| 20260505165517 | 59 | 275 | 0.9 | 5.2 | 0.00 | 0.00 | 0.00 | 46 | 1012.9 |
| 20260505165020 | 59 | 15 | 0.9 | 5.2 | 0.00 | 0.00 | 0.00 | 47 | 1012.8 |
| 20260505164536 | 58 | 346 | 2.6 | 5.2 | 0.00 | 0.00 | 0.00 | 46 | 1012.7 |
| 20260505164017 | 58 | 13 | 0.9 | 5.2 | 0.00 | 0.00 | 0.00 | 49 | 1012.5 |
| 20260505163517 | 57 | 244 | 1.7 | 6.1 | 0.00 | 0.00 | 0.00 | 49 | 1012.6 |
| 20260505163037 | 57 | 0 | 0.9 | 6.1 | 0.00 | 0.00 | 0.00 | 51 | 1012.8 |
| 20260505162516 | 56 | 107 | 1.7 | 6.1 | 0.00 | 0.00 | 0.00 | 51 | 1012.8 |
| 20260505162017 | 56 | 241 | 0.9 | 6.1 | 0.00 | 0.00 | 0.00 | 53 | 1012.7 |
| 20260505161534 | 55 | 235 | 0.9 | 6.1 | 0.00 | 0.00 | 0.00 | 55 | 1012.8 |
| 20260505161018 | 55 | 74 | 0.9 | 5.2 | 0.00 | 0.00 | 0.00 | 57 | 1012.9 |
| 20260505160518 | 54 | 360 | 1.7 | 8.7 | 0.00 | 0.00 | 0.00 | 58 | 1013.0 |
| 20260505153038 | 55 | 275 | 2.6 | 11.3 | 0.00 | 0.00 | 0.00 | 56 | 1013.3 |
| 20260505152516 | 55 | 236 | 1.7 | 9.6 | 0.00 | 0.00 | 0.00 | 57 | 1013.4 |
| 20260505152017 | 55 | 0 | 2.6 | 9.6 | 0.00 | 0.00 | 0.00 | 59 | 1013.5 |
| 20260505151554 | 55 | 204 | 2.6 | 7.0 | 0.00 | 0.00 | 0.00 | 61 | 1013.6 |
| 20260505151017 | 55 | 213 | 1.7 | 5.2 | 0.00 | 0.00 | 0.00 | 62 | 1013.6 |
| 20260505150520 | 55 | 360 | 1.7 | 7.0 | 0.00 | 0.00 | 0.00 | 62 | 1013.4 |
| 20260505140518 | 56 | 0 | 0.9 | 7.0 | 0.00 | 0.00 | 0.00 | 55 | 1013.4 |
| 20260505125021 | 58 | 0 | 0.0 | 5.2 | 0.00 | 0.00 | 0.00 | 44 | 1012.4 |
| 20260505124544 | 58 | 0 | 0.9 | 5.2 | 0.00 | 0.00 | 0.00 | 45 | 1012.3 |
| 20260505124020 | 58 | 0 | 0.9 | 3.5 | 0.00 | 0.00 | 0.00 | 40 | 1012.4 |
| 20260505123517 | 58 | 265 | 0.9 | 3.5 | 0.00 | 0.00 | 0.00 | 40 | 1012.5 |
| 20260505123041 | 58 | 223 | 0.9 | 2.6 | 0.00 | 0.00 | 0.00 | 40 | 1012.4 |
| 20260505122517 | 59 | 250 | 0.9 | 5.2 | 0.00 | 0.00 | 0.00 | 39 | 1012.5 |
| 20260505122019 | 59 | 253 | 0.9 | 5.2 | 0.00 | 0.00 | 0.00 | 39 | 1012.4 |
| 20260505121535 | 59 | 269 | 1.7 | 5.2 | 0.00 | 0.00 | 0.00 | 39 | 1012.4 |
| 20260505121016 | 59 | 275 | 1.7 | 3.5 | 0.00 | 0.00 | 0.00 | 38 | 1012.4 |
| 20260505120522 | 59 | 253 | 0.9 | 4.3 | 0.00 | 0.00 | 0.00 | 38 | 1012.3 |
| 20260505120042 | 59 | 206 | 1.7 | 5.2 | 0.00 | 0.00 | 0.00 | 38 | 1012.4 |
| 20260505115515 | 59 | 262 | 1.7 | 5.2 | 0.00 | 0.00 | 0.00 | 39 | 1012.2 |
| 20260505115019 | 59 | 232 | 0.9 | 6.1 | 0.00 | 0.00 | 0.00 | 40 | 1012.2 |
| 20260505114540 | 59 | 284 | 1.7 | 6.1 | 0.00 | 0.00 | 0.00 | 39 | 1012.3 |
| 20260505114022 | 59 | 236 | 1.7 | 6.1 | 0.00 | 0.00 | 0.00 | 39 | 1012.1 |
| 20260505113520 | 59 | 228 | 1.7 | 6.1 | 0.00 | 0.00 | 0.00 | 39 | 1011.9 |
| 20260505113035 | 59 | 259 | 1.7 | 6.1 | 0.00 | 0.00 | 0.00 | 39 | 1011.9 |
| 20260505112521 | 59 | 243 | 0.9 | 7.8 | 0.00 | 0.00 | 0.00 | 38 | 1011.8 |
| 20260505112019 | 59 | 0 | 1.7 | 7.8 | 0.00 | 0.00 | 0.00 | 38 | 1011.8 |
| 20260505111541 | 59 | 207 | 2.6 | 6.1 | 0.00 | 0.00 | 0.00 | 37 | 1011.9 |
| 20260505111019 | 59 | 296 | 1.7 | 6.1 | 0.00 | 0.00 | 0.00 | 37 | 1011.7 |
| 20260505110519 | 59 | 271 | 1.7 | 5.2 | 0.00 | 0.00 | 0.00 | 37 | 1011.9 |
| 20260505102019 | 59 | 308 | 0.9 | 3.5 | 0.00 | 0.00 | 0.00 | 34 | 1012.2 |
| 20260505101541 | 59 | 202 | 0.9 | 3.5 | 0.00 | 0.00 | 0.00 | 34 | 1012.2 |
| 20260505101015 | 59 | 221 | 0.9 | 3.5 | 0.00 | 0.00 | 0.00 | 34 | 1012.2 |
| 20260505100519 | 59 | 236 | 0.0 | 2.6 | 0.00 | 0.00 | 0.00 | 34 | 1012.2 |
| 20260505100036 | 59 | 0 | 0.0 | 0.9 | 0.00 | 0.00 | 0.00 | 35 | 1012.2 |
| 20260505095517 | 59 | 0 | 0.0 | 0.9 | 0.00 | 0.00 | 0.00 | 35 | 1012.1 |
| 20260505095016 | 59 | 0 | 0.0 | 1.7 | 0.00 | 0.00 | 0.00 | 34 | 1012.1 |
| 20260505094536 | 59 | 0 | 0.0 | 1.7 | 0.00 | 0.00 | 0.00 | 35 | 1012.1 |
| 20260505094017 | 60 | 238 | 0.0 | 1.7 | 0.00 | 0.00 | 0.00 | 35 | 1012.1 |
| 20260505093516 | 60 | 0 | 0.0 | 1.7 | 0.00 | 0.00 | 0.00 | 35 | 1011.9 |
| 20260505093040 | 60 | 237 | 0.0 | 1.7 | 0.00 | 0.00 | 0.00 | 35 | 1011.9 |
| 20260505092516 | 60 | 237 | 0.0 | 1.7 | 0.00 | 0.00 | 0.00 | 34 | 1011.8 |
| 20260505092016 | 60 | 0 | 0.0 | 1.7 | 0.00 | 0.00 | 0.00 | 34 | 1012.0 |
| 20260505091536 | 60 | 0 | 0.0 | 1.7 | 0.00 | 0.00 | 0.00 | 34 | 1012.2 |
| 20260505091015 | 60 | 0 | 0.0 | 2.6 | 0.00 | 0.00 | 0.00 | 34 | 1012.2 |
| 20260505090516 | 60 | 0 | 0.0 | 2.6 | 0.00 | 0.00 | 0.00 | 34 | 1012.2 |
| 20260505090048 | 61 | 0 | 0.0 | 3.5 | 0.00 | 0.00 | 0.00 | 33 | 1012.3 |
| 20260505085515 | 61 | 237 | 0.9 | 3.5 | 0.00 | 0.00 | 0.00 | 33 | 1012.4 |
| 20260505085017 | 61 | 0 | 0.9 | 2.6 | 0.00 | 0.00 | 0.00 | 33 | 1012.3 |
| 20260505084540 | 61 | 232 | 0.0 | 1.7 | 0.00 | 0.00 | 0.00 | 33 | 1012.4 |
| 20260505084018 | 61 | 0 | 0.0 | 2.6 | 0.00 | 0.00 | 0.00 | 32 | 1012.4 |
| 20260505083517 | 62 | 229 | 0.9 | 2.6 | 0.00 | 0.00 | 0.00 | 31 | 1012.5 |
| 20260505083038 | 62 | 229 | 0.0 | 2.6 | 0.00 | 0.00 | 0.00 | 32 | 1012.6 |
| 20260505082518 | 62 | 230 | 0.9 | 6.1 | 0.00 | 0.00 | 0.00 | 31 | 1012.7 |
| 20260505082017 | 62 | 242 | 0.9 | 7.0 | 0.00 | 0.00 | 0.00 | 31 | 1012.8 |
| 20260505081542 | 62 | 0 | 1.7 | 7.0 | 0.00 | 0.00 | 0.00 | 31 | 1012.7 |
| 20260505081018 | 62 | 257 | 2.6 | 10.4 | 0.00 | 0.00 | 0.00 | 31 | 1012.7 |
| 20260505080516 | 62 | 254 | 2.6 | 10.4 | 0.00 | 0.00 | 0.00 | 30 | 1012.7 |
| 20260505080034 | 62 | 286 | 3.5 | 9.6 | 0.00 | 0.00 | 0.00 | 31 | 1012.5 |
| 20260505075517 | 62 | 217 | 2.6 | 7.0 | 0.00 | 0.00 | 0.00 | 31 | 1012.7 |
| 20260505075015 | 62 | 239 | 2.6 | 7.0 | 0.00 | 0.00 | 0.00 | 31 | 1012.9 |
| 20260505074534 | 63 | 238 | 2.6 | 8.7 | 0.00 | 0.00 | 0.00 | 31 | 1012.9 |
| 20260505074015 | 63 | 244 | 2.6 | 8.7 | 0.00 | 0.00 | 0.00 | 31 | 1012.8 |
| 20260505073518 | 63 | 264 | 2.6 | 8.7 | 0.00 | 0.00 | 0.00 | 31 | 1012.7 |
| 20260505073037 | 63 | 238 | 3.5 | 7.8 | 0.00 | 0.00 | 0.00 | 30 | 1012.6 |
| 20260505072516 | 63 | 269 | 2.6 | 7.8 | 0.00 | 0.00 | 0.00 | 30 | 1012.7 |
| 20260505072015 | 63 | 238 | 3.5 | 8.7 | 0.00 | 0.00 | 0.00 | 30 | 1012.5 |
| 20260505071536 | 63 | 238 | 3.5 | 9.6 | 0.00 | 0.00 | 0.00 | 30 | 1012.6 |
| 20260505071018 | 64 | 252 | 3.5 | 9.6 | 0.00 | 0.00 | 0.00 | 30 | 1012.6 |
| 20260505070517 | 64 | 286 | 1.7 | 9.6 | 0.00 | 0.00 | 0.00 | 30 | 1012.6 |
| 20260505070042 | 64 | 273 | 1.7 | 9.6 | 0.00 | 0.00 | 0.00 | 29 | 1012.7 |
| 20260505065518 | 64 | 0 | 1.7 | 9.6 | 0.00 | 0.00 | 0.00 | 29 | 1012.4 |
| 20260505065017 | 64 | 194 | 0.9 | 7.8 | 0.00 | 0.00 | 0.00 | 28 | 1012.4 |
| 20260505064534 | 64 | 221 | 1.7 | 7.8 | 0.00 | 0.00 | 0.00 | 28 | 1012.2 |
| 20260505064015 | 64 | 202 | 2.6 | 7.8 | 0.00 | 0.00 | 0.00 | 28 | 1012.4 |
| 20260505063519 | 64 | 242 | 1.7 | 8.7 | 0.00 | 0.00 | 0.00 | 28 | 1012.3 |
| 20260505063033 | 65 | 242 | 2.6 | 8.7 | 0.00 | 0.00 | 0.00 | 27 | 1012.3 |
| 20260505062519 | 65 | 301 | 2.6 | 8.7 | 0.00 | 0.00 | 0.00 | 27 | 1012.3 |
| 20260505062016 | 65 | 203 | 0.9 | 7.0 | 0.00 | 0.00 | 0.00 | 27 | 1012.3 |
| 20260505061540 | 65 | 247 | 2.6 | 7.0 | 0.00 | 0.00 | 0.00 | 26 | 1012.3 |
| 20260505061020 | 65 | 284 | 2.6 | 11.3 | 0.00 | 0.00 | 0.00 | 26 | 1012.3 |
| 20260505060517 | 65 | 212 | 3.5 | 11.3 | 0.00 | 0.00 | 0.00 | 26 | 1012.3 |
| 20260505060036 | 66 | 306 | 4.3 | 11.3 | 0.00 | 0.00 | 0.00 | 25 | 1012.2 |
| 20260505055517 | 66 | 296 | 3.5 | 11.3 | 0.00 | 0.00 | 0.00 | 25 | 1012.0 |
| 20260505055020 | 66 | 236 | 4.3 | 10.4 | 0.00 | 0.00 | 0.00 | 25 | 1011.9 |
| 20260505054540 | 66 | 233 | 4.3 | 10.4 | 0.00 | 0.00 | 0.00 | 25 | 1012.1 |
| 20260505054019 | 66 | 232 | 6.1 | 10.4 | 0.00 | 0.00 | 0.00 | 24 | 1012.1 |
| 20260505053519 | 66 | 227 | 4.3 | 10.4 | 0.00 | 0.00 | 0.00 | 25 | 1011.9 |
| 20260505053043 | 67 | 223 | 3.5 | 10.4 | 0.00 | 0.00 | 0.00 | 24 | 1011.8 |
| 20260505052517 | 67 | 246 | 3.5 | 9.6 | 0.00 | 0.00 | 0.00 | 24 | 1011.9 |
| 20260505052017 | 67 | 269 | 3.5 | 9.6 | 0.00 | 0.00 | 0.00 | 24 | 1011.9 |
| 20260505051535 | 67 | 257 | 0.9 | 7.8 | 0.00 | 0.00 | 0.00 | 24 | 1011.9 |
| 20260505051014 | 67 | 218 | 1.7 | 7.8 | 0.00 | 0.00 | 0.00 | 24 | 1011.8 |
| 20260505050519 | 67 | 232 | 2.6 | 7.8 | 0.00 | 0.00 | 0.00 | 23 | 1011.8 |
| 20260505041534 | 68 | 250 | 0.9 | 4.3 | 0.00 | 0.00 | 0.00 | 23 | 1011.7 |
| 20260505041017 | 68 | 219 | 0.9 | 3.5 | 0.00 | 0.00 | 0.00 | 23 | 1011.7 |
| 20260505040514 | 68 | 283 | 0.9 | 4.3 | 0.00 | 0.00 | 0.00 | 24 | 1011.6 |
| 20260505040035 | 69 | 242 | 0.9 | 4.3 | 0.00 | 0.00 | 0.00 | 23 | 1011.7 |
| 20260505035517 | 69 | 0 | 0.9 | 7.0 | 0.00 | 0.00 | 0.00 | 23 | 1011.6 |
| 20260505035030 | 69 | 245 | 0.9 | 7.0 | 0.00 | 0.00 | 0.00 | 24 | 1011.6 |
| 20260505034531 | 69 | 254 | 1.7 | 7.0 | 0.00 | 0.00 | 0.00 | 23 | 1011.6 |
| 20260505034018 | 69 | 0 | 2.6 | 7.0 | 0.00 | 0.00 | 0.00 | 23 | 1011.4 |
| 20260505033515 | 69 | 0 | 1.7 | 6.1 | 0.00 | 0.00 | 0.00 | 23 | 1011.4 |
| 20260505033100 | 69 | 283 | 1.7 | 6.1 | 0.00 | 0.00 | 0.00 | 23 | 1011.3 |
| 20260505032518 | 69 | 254 | 1.7 | 7.8 | 0.00 | 0.00 | 0.00 | 23 | 1011.3 |
| 20260505032014 | 69 | 275 | 2.6 | 7.8 | 0.00 | 0.00 | 0.00 | 23 | 1011.1 |
| 20260505031538 | 69 | 259 | 2.6 | 9.6 | 0.00 | 0.00 | 0.00 | 22 | 1011.1 |
| 20260505031018 | 70 | 250 | 3.5 | 9.6 | 0.00 | 0.00 | 0.00 | 22 | 1011.0 |
| 20260505030519 | 70 | 277 | 4.3 | 9.6 | 0.00 | 0.00 | 0.00 | 22 | 1010.8 |
| 20260505030038 | 70 | 259 | 3.5 | 9.6 | 0.00 | 0.00 | 0.00 | 22 | 1010.7 |
| 20260505025518 | 70 | 233 | 2.6 | 7.8 | 0.00 | 0.00 | 0.00 | 21 | 1010.7 |
| 20260505025017 | 70 | 243 | 4.3 | 9.6 | 0.00 | 0.00 | 0.00 | 21 | 1010.7 |
| 20260505024536 | 71 | 278 | 4.3 | 11.3 | 0.00 | 0.00 | 0.00 | 21 | 1010.7 |
| 20260505024018 | 71 | 235 | 5.2 | 11.3 | 0.00 | 0.00 | 0.00 | 21 | 1010.6 |
| 20260505023517 | 71 | 315 | 4.3 | 9.6 | 0.00 | 0.00 | 0.00 | 20 | 1010.5 |
| 20260505023042 | 71 | 298 | 2.6 | 8.7 | 0.00 | 0.00 | 0.00 | 21 | 1010.6 |
| 20260505022522 | 71 | 265 | 4.3 | 9.6 | 0.00 | 0.00 | 0.00 | 20 | 1010.6 |
| 20260505022017 | 71 | 262 | 2.6 | 9.6 | 0.00 | 0.00 | 0.00 | 20 | 1010.6 |
| 20260505021536 | 71 | 277 | 4.3 | 9.6 | 0.00 | 0.00 | 0.00 | 19 | 1010.6 |
| 20260505021022 | 72 | 252 | 3.5 | 10.4 | 0.00 | 0.00 | 0.00 | 20 | 1010.6 |
| 20260505020518 | 72 | 259 | 3.5 | 10.4 | 0.00 | 0.00 | 0.00 | 19 | 1010.4 |
| 20260505020035 | 72 | 259 | 3.5 | 10.4 | 0.00 | 0.00 | 0.00 | 19 | 1010.3 |
| 20260505015515 | 72 | 249 | 3.5 | 10.4 | 0.00 | 0.00 | 0.00 | 19 | 1010.2 |
| 20260505015017 | 72 | 252 | 3.5 | 11.3 | 0.00 | 0.00 | 0.00 | 19 | 1010.1 |
| 20260505014536 | 72 | 282 | 3.5 | 11.3 | 0.00 | 0.00 | 0.00 | 19 | 1010.2 |
| 20260505014016 | 72 | 250 | 3.5 | 9.6 | 0.00 | 0.00 | 0.00 | 19 | 1010.0 |
| 20260505013517 | 73 | 282 | 3.5 | 9.6 | 0.00 | 0.00 | 0.00 | 19 | 1010.0 |
| 20260505013034 | 73 | 255 | 2.6 | 7.8 | 0.00 | 0.00 | 0.00 | 19 | 1009.9 |
| 20260505012514 | 73 | 241 | 0.9 | 7.8 | 0.00 | 0.00 | 0.00 | 19 | 1009.7 |
| 20260505012016 | 73 | 279 | 1.7 | 8.7 | 0.00 | 0.00 | 0.00 | 20 | 1009.7 |
| 20260505011533 | 73 | 248 | 1.7 | 8.7 | 0.00 | 0.00 | 0.00 | 19 | 1009.7 |
| 20260505011018 | 73 | 224 | 3.5 | 8.7 | 0.00 | 0.00 | 0.00 | 19 | 1009.7 |
| 20260505010517 | 74 | 237 | 2.6 | 11.3 | 0.00 | 0.00 | 0.00 | 19 | 1009.7 |
| 20260505010037 | 74 | 155 | 3.5 | 11.3 | 0.00 | 0.00 | 0.00 | 19 | 1009.7 |
| 20260505005517 | 74 | 254 | 5.2 | 10.4 | 0.00 | 0.00 | 0.00 | 18 | 1009.8 |
| 20260505005018 | 74 | 256 | 3.5 | 8.7 | 0.00 | 0.00 | 0.00 | 18 | 1009.7 |
| 20260505004544 | 74 | 268 | 2.6 | 9.6 | 0.00 | 0.00 | 0.00 | 18 | 1009.7 |
| 20260505004016 | 74 | 255 | 3.5 | 9.6 | 0.00 | 0.00 | 0.00 | 17 | 1009.6 |
| 20260505003518 | 74 | 259 | 1.7 | 8.7 | 0.00 | 0.00 | 0.00 | 17 | 1009.8 |
| 20260505003037 | 74 | 245 | 3.5 | 10.4 | 0.00 | 0.00 | 0.00 | 17 | 1009.8 |
| 20260505002518 | 75 | 250 | 2.6 | 10.4 | 0.00 | 0.00 | 0.00 | 17 | 1009.9 |
| 20260505002015 | 75 | 252 | 4.3 | 12.2 | 0.00 | 0.00 | 0.00 | 16 | 1009.9 |
| 20260505001534 | 75 | 250 | 5.2 | 12.2 | 0.00 | 0.00 | 0.00 | 16 | 1009.8 |
| 20260505001017 | 75 | 220 | 5.2 | 11.3 | 0.00 | 0.00 | 0.00 | 16 | 1009.9 |
| 20260505000517 | 75 | 272 | 3.5 | 11.3 | 0.00 | 0.00 | 0.00 | 16 | 1010.0 |
| 20260505000035 | 75 | 282 | 4.3 | 11.3 | 0.00 | 0.00 | 0.00 | 16 | 1009.9 |
| 20260504235517 | 75 | 213 | 2.6 | 9.6 | 0.00 | 0.00 | 0.00 | 16 | 1009.9 |
| 20260504235018 | 75 | 229 | 4.3 | 9.6 | 0.00 | 0.00 | 0.00 | 16 | 1009.9 |
| 20260504234550 | 75 | 241 | 4.3 | 9.6 | 0.00 | 0.00 | 0.00 | 15 | 1010.0 |
| 20260504234017 | 75 | 241 | 3.5 | 11.3 | 0.00 | 0.00 | 0.00 | 15 | 1010.0 |
| 20260504233517 | 75 | 218 | 3.5 | 11.3 | 0.00 | 0.00 | 0.00 | 15 | 1010.2 |
| 20260504233037 | 75 | 234 | 6.1 | 11.3 | 0.00 | 0.00 | 0.00 | 14 | 1010.2 |
| 20260504232517 | 75 | 228 | 2.6 | 12.2 | 0.00 | 0.00 | 0.00 | 14 | 1010.2 |
| 20260504232017 | 75 | 291 | 5.2 | 12.2 | 0.00 | 0.00 | 0.00 | 14 | 1010.2 |
| 20260504231548 | 75 | 205 | 5.2 | 11.3 | 0.00 | 0.00 | 0.00 | 14 | 1010.2 |
| 20260504231017 | 75 | 243 | 4.3 | 11.3 | 0.00 | 0.00 | 0.00 | 13 | 1010.3 |
| 20260504230518 | 75 | 229 | 6.1 | 12.2 | 0.00 | 0.00 | 0.00 | 13 | 1010.3 |
| 20260504230035 | 75 | 291 | 5.2 | 12.2 | 0.00 | 0.00 | 0.00 | 13 | 1010.2 |
| 20260504225523 | 76 | 320 | 6.1 | 12.2 | 0.00 | 0.00 | 0.00 | 12 | 1010.2 |
| 20260504225015 | 76 | 213 | 3.5 | 11.3 | 0.00 | 0.00 | 0.00 | 12 | 1010.2 |
| 20260504224534 | 76 | 267 | 7.0 | 13.9 | 0.00 | 0.00 | 0.00 | 12 | 1010.3 |
| 20260504224018 | 76 | 223 | 5.2 | 13.9 | 0.00 | 0.00 | 0.00 | 12 | 1010.3 |
| 20260504223514 | 76 | 206 | 6.1 | 13.9 | 0.00 | 0.00 | 0.00 | 13 | 1010.2 |
| 20260504223034 | 76 | 252 | 5.2 | 14.8 | 0.00 | 0.00 | 0.00 | 13 | 1010.3 |
| 20260504222515 | 76 | 281 | 6.1 | 14.8 | 0.00 | 0.00 | 0.00 | 12 | 1010.4 |
| 20260504222017 | 76 | 193 | 7.0 | 14.8 | 0.00 | 0.00 | 0.00 | 13 | 1010.6 |
| 20260504221535 | 76 | 302 | 3.5 | 10.4 | 0.00 | 0.00 | 0.00 | 12 | 1010.6 |
| 20260504221014 | 76 | 248 | 5.2 | 15.6 | 0.00 | 0.00 | 0.00 | 12 | 1010.6 |
| 20260504220514 | 76 | 257 | 5.2 | 15.6 | 0.00 | 0.00 | 0.00 | 11 | 1010.7 |
| 20260504220032 | 77 | 257 | 5.2 | 13.0 | 0.00 | 0.00 | 0.00 | 11 | 1010.9 |
| 20260504215518 | 77 | 241 | 5.2 | 12.2 | 0.00 | 0.00 | 0.00 | 11 | 1010.8 |
| 20260504215020 | 77 | 246 | 4.3 | 10.4 | 0.00 | 0.00 | 0.00 | 11 | 1010.9 |
| 20260504214538 | 77 | 227 | 3.5 | 11.3 | 0.00 | 0.00 | 0.00 | 12 | 1011.0 |
| 20260504214017 | 77 | 204 | 4.3 | 15.6 | 0.00 | 0.00 | 0.00 | 12 | 1011.0 |
| 20260504213521 | 78 | 240 | 5.2 | 15.6 | 0.00 | 0.00 | 0.00 | 11 | 1011.0 |
| 20260504213034 | 78 | 226 | 2.6 | 12.2 | 0.00 | 0.00 | 0.00 | 13 | 1011.0 |
| 20260504212519 | 78 | 156 | 5.2 | 13.0 | 0.00 | 0.00 | 0.00 | 12 | 1011.0 |
| 20260504212014 | 78 | 243 | 4.3 | 13.0 | 0.00 | 0.00 | 0.00 | 13 | 1011.2 |
| 20260504211531 | 77 | 253 | 4.3 | 13.9 | 0.00 | 0.00 | 0.00 | 12 | 1011.1 |
| 20260504211017 | 77 | 246 | 6.1 | 15.6 | 0.00 | 0.00 | 0.00 | 12 | 1011.3 |
| 20260504210518 | 78 | 209 | 6.1 | 15.6 | 0.00 | 0.00 | 0.00 | 12 | 1011.3 |
| 20260504210034 | 77 | 202 | 4.3 | 12.2 | 0.00 | 0.00 | 0.00 | 13 | 1011.6 |
| 20260504205521 | 78 | 223 | 3.5 | 11.3 | 0.00 | 0.00 | 0.00 | 12 | 1011.6 |
| 20260504205015 | 78 | 168 | 2.6 | 9.6 | 0.00 | 0.00 | 0.00 | 16 | 1011.8 |
| 20260504204613 | 78 | 306 | 2.6 | 9.6 | 0.00 | 0.00 | 0.00 | 16 | 1012.1 |
| 20260504204018 | 78 | 258 | 1.7 | 9.6 | 0.00 | 0.00 | 0.00 | 15 | 1011.9 |
| 20260504203515 | 78 | 149 | 2.6 | 9.6 | 0.00 | 0.00 | 0.00 | 15 | 1012.2 |
| 20260504203036 | 77 | 281 | 3.5 | 9.6 | 0.00 | 0.00 | 0.00 | 16 | 1012.4 |
| 20260504202518 | 77 | 240 | 1.7 | 9.6 | 0.00 | 0.00 | 0.00 | 18 | 1012.6 |
| 20260504202019 | 76 | 0 | 3.5 | 12.2 | 0.00 | 0.00 | 0.00 | 17 | 1012.7 |
| 20260504201536 | 76 | 271 | 2.6 | 12.2 | 0.00 | 0.00 | 0.00 | 18 | 1012.9 |
| 20260504201017 | 76 | 302 | 1.7 | 9.6 | 0.00 | 0.00 | 0.00 | 18 | 1012.8 |
| 20260504200520 | 75 | 286 | 2.6 | 9.6 | 0.00 | 0.00 | 0.00 | 19 | 1012.9 |
| 20260504200039 | 75 | 303 | 4.3 | 9.6 | 0.00 | 0.00 | 0.00 | 18 | 1013.1 |
| 20260504195514 | 75 | 242 | 3.5 | 9.6 | 0.00 | 0.00 | 0.00 | 20 | 1013.1 |
| 20260504195014 | 75 | 120 | 3.5 | 12.2 | 0.00 | 0.00 | 0.00 | 19 | 1013.1 |
| 20260504194544 | 74 | 258 | 6.1 | 12.2 | 0.00 | 0.00 | 0.00 | 18 | 1013.2 |
| 20260504194016 | 74 | 44 | 2.6 | 11.3 | 0.00 | 0.00 | 0.00 | 20 | 1013.1 |
| 20260504193515 | 74 | 345 | 3.5 | 11.3 | 0.00 | 0.00 | 0.00 | 20 | 1013.3 |
| 20260504193032 | 74 | 245 | 3.5 | 9.6 | 0.00 | 0.00 | 0.00 | 19 | 1013.4 |
| 20260504192516 | 75 | 252 | 3.5 | 9.6 | 0.00 | 0.00 | 0.00 | 19 | 1013.6 |
| 20260504192015 | 74 | 169 | 1.7 | 7.0 | 0.00 | 0.00 | 0.00 | 20 | 1013.5 |
| 20260504191534 | 74 | 114 | 0.9 | 7.0 | 0.00 | 0.00 | 0.00 | 20 | 1013.6 |
| 20260504191015 | 73 | 239 | 2.6 | 8.7 | 0.00 | 0.00 | 0.00 | 21 | 1013.7 |
| 20260504190515 | 72 | 0 | 2.6 | 8.7 | 0.00 | 0.00 | 0.00 | 24 | 1013.7 |
| 20260504190037 | 72 | 261 | 2.6 | 9.6 | 0.00 | 0.00 | 0.00 | 21 | 1013.9 |
| 20260504185521 | 72 | 267 | 4.3 | 9.6 | 0.00 | 0.00 | 0.00 | 23 | 1014.0 |
| 20260504185014 | 72 | 217 | 3.5 | 11.3 | 0.00 | 0.00 | 0.00 | 20 | 1014.0 |
| 20260504184534 | 73 | 217 | 3.5 | 11.3 | 0.00 | 0.00 | 0.00 | 20 | 1014.4 |